Location: Ghirelalingayap?lem
(16.1090°N, 80.4416°E)
Time: 04:20:06
(UTC+00:00)

Daily predictions for brighter satellites

Satellite Brightness Start Highest point End
(mag) Time Altitude Azimuth Time Altitude Azimuth Time Altitude Azimuth
BREEZE M DEB (TANK) 4.5 00:00:38 10° NNW 00:03:29 17° NNE 00:05:21 10° E
FALCON 9 DEB 4.0 00:02:42 10° SSW 00:05:45 47° SE 00:08:48 10° NE
CZ-4B R/B 2.6 00:06:31 10° SW 00:08:45 19° W 00:11:02 10° NW
Spot 2 4.0 00:05:30 10° N 00:09:24 52° WNW 00:13:21 10° SSW
Cosmos 1743 2.6 00:05:53 10° N 00:09:40 71° W 00:13:27 10° S
Cosmos 2360 Rocket 3.9 00:07:54 10° W 00:09:54 12° WNW 00:11:56 10° NW
Cosmos 1459 Rocket 4.3 00:04:55 10° NNW 00:10:30 41° W 00:16:07 10° SSW
